Location: Ferchesar
(52.6477°N, 12.4298°E)
Time: 14:53:39
(UTC+01:00)

deb Explorer IX - Pass Details

Date: 11 December 2021
Orbit: 544 x 1082 km, 38.8° (Epoch: 18 January)

Event Time Altitude Azimuth Distance (km) Brightness Sun altitude
Rises 09:59:10 0° 245° (WSW) 3,279 ? 9.6°
Reaches altitude 10° 10:02:40 10° 224° (SW) 2,227 ? 9.9°
Maximum altitude 10:05:42 16° 188° (S) 1,764 ? 10.1°
Drops below altitude 10° 10:08:32 10° 151° (SSE) 2,035 ? 10.3°
Sets 10:11:31 0° 129° (SE) 2,854 ? 10.5°
